[[[{"header":{"parameterUnit":"kt","parameterCategory":2,"dx":1,"dy":1,"la1":30.253999710083008,"la2":30.299108505249023,"lo1":-89.0895004272461,"lo2":-89.04439544677734,"nx":28,"ny":28,"refTime":"2022-09-21T09:00:00:Z","depth":0,"parameterNumber":1,"parameterNumberName":"U-component_of_WINDS"},"data":[2.1377,2.1372,2.1362,2.1351,2.134,2.133,2.1323,2.1312,2.1301,2.1288,2.1278,2.1266,2.1249,2.1233,2.1221,2.1216,2.1211,2.1217,2.1209,2.1193,2.119,2.1187,2.1187,2.1216,2.1216,2.1227,2.1227,2.1227,2.1365,2.1354,2.1345,2.133,2.1322,2.131,2.1296,2.129,2.1281,2.1268,2.1257,2.1244,2.1232,2.1213,2.1199,2.1195,2.1187,2.1192,2.1191,2.1188,2.1171,2.1171,2.1198,2.1198,2.1198,2.1198,2.1198,2.1198,2.1339,2.1337,2.1322,2.1312,2.1302,2.1291,2.1287,2.1272,2.1263,2.1248,2.1237,2.1227,2.121,2.1188,2.1177,2.1168,2.1161,2.1162,2.1162,2.1162,2.1163,2.1147,2.1165,2.1165,2.1165,2.1165,2.1165,0,2.1317,2.1308,2.1299,2.1287,2.128,2.127,2.1258,2.1255,2.1232,2.1225,2.1215,2.1206,2.119,2.1178,2.1162,2.1151,2.1136,2.1133,2.1133,2.1138,2.1144,2.1139,2.111,2.1133,2.1132,2.1132,2.1132,2.1132,2.1288,2.1288,2.1267,2.1262,2.1253,2.1246,2.1239,2.1219,2.1213,2.1195,2.1193,2.1182,2.1171,2.1155,2.1137,2.1124,2.1116,2.1126,2.1114,2.1119,2.1114,2.1114,2.1113,2.1128,2.1129,2.1129,2.1129,0,2.1273,2.1256,2.1251,2.123,2.1225,2.1225,2.1206,2.1203,2.1189,2.1183,2.118,2.1158,2.1148,2.1128,2.1112,2.1102,2.1099,2.1093,2.1104,2.1101,2.1107,2.1106,2.1131,2.1133,2.1104,2.1104,2.1104,0,2.1241,2.1242,2.1215,2.1214,2.1213,2.1192,2.1192,2.118,2.1166,2.1161,2.1142,2.1137,2.1113,2.1105,2.109,2.1084,2.1082,2.1073,2.1069,2.1074,2.1075,2.1069,2.1067,2.1062,2.1061,2.1061,2.1061,0,2.1218,2.1205,2.1202,2.1196,2.1174,2.1173,2.1163,2.1148,2.1141,2.113,2.1125,2.1113,2.1106,2.1097,2.1078,2.107,2.1071,2.1057,2.1062,2.1062,2.1062,2.1062,2.1091,2.1061,2.1061,2.1061,2.1061,0,2.1188,2.1179,2.1179,2.1159,2.1156,2.1155,2.1142,2.1136,2.1121,2.1112,2.1103,2.1087,2.1082,2.1069,2.1061,2.1057,2.1051,2.1042,2.1042,2.1039,2.1025,2.1041,2.1072,2.1074,2.1038,2.1038,2.1037,0,2.1165,2.1161,2.1143,2.1144,2.1139,2.1117,2.1115,2.1103,2.109,2.1084,2.1069,2.1062,2.1049,2.1043,2.1042,2.1027,2.1033,2.1026,2.1014,2.1013,2.1017,2.1045,2.1054,2.1068,2.1035,2.1035,2.1035,0,2.1145,2.1118,2.1119,2.1111,2.1092,2.1088,2.1087,2.1075,2.1071,2.1061,2.1057,2.1048,2.1036,2.1028,2.1014,2.1014,2.1028,2.1002,2.1001,2.1006,2.1032,2.104,2.1043,2.1019,2.1019,2.1019,2.1033,0,2.1101,2.1097,2.1101,2.1085,2.1079,2.1079,2.1059,2.1056,2.1043,2.1029,2.1025,2.1011,2.0999,2.0997,2.0985,2.0992,2.0987,2.0975,2.096,2.098,2.0984,2.0985,2.0956,2.0955,2.0955,2.0954,0,0,2.1082,2.1076,2.1057,2.1055,2.1049,2.1026,2.1027,2.1019,2.1002,2.0998,2.0989,2.0973,2.0962,2.0959,2.0963,2.096,2.0958,2.0952,2.0971,2.0973,2.0975,2.0979,2.0982,2.0954,2.0953,2.0953,2.0953,0,2.1061,2.1052,2.1054,2.1044,2.1029,2.1015,2.1016,2.0997,2.0989,2.0986,2.0966,2.0961,2.095,2.094,2.0933,2.0953,2.0937,2.0951,2.0968,2.0967,2.097,2.0972,2.0977,2.0979,2.0952,2.0952,2.0952,0,2.1036,2.1022,2.1022,2.1008,2.0998,2.0994,2.0973,2.0971,2.0967,2.0942,2.0939,2.0928,2.0913,2.0914,2.0914,2.0906,2.092,2.0913,2.0915,2.0914,2.0913,2.0916,2.0919,2.0881,2.0881,2.0881,0,0,2.102,2.1017,2.0996,2.1002,2.0997,2.0977,2.0973,2.096,2.0947,2.0942,2.0928,2.0916,2.0909,2.0905,2.0897,2.0902,2.0896,2.0905,2.0908,2.0911,2.0912,2.0911,2.0914,2.088,2.088,2.088,0,0,2.1013,2.0989,2.0978,2.0983,2.0972,2.0951,2.0954,2.0941,2.0932,2.093,2.0907,2.0903,2.0903,2.0894,2.0888,2.0891,2.0876,2.0877,2.0897,2.0901,2.0904,2.0906,2.0864,0,0,0,0,0,2.0982,2.0992,2.0982,2.098,2.0963,2.0956,2.0953,2.0935,2.0925,2.0928,2.0914,2.0898,2.0885,2.088,2.0877,2.0884,2.0872,2.0874,2.0875,2.0901,2.0906,2.0909,0,0,0,0,0,0,2.098,2.0978,2.0982,2.0962,2.0958,2.0955,2.0934,2.0929,2.0924,2.0921,2.0902,2.0898,2.0882,2.0879,2.0878,2.0884,2.0864,2.0873,2.0874,2.0875,2.0903,2.0906,2.0909,0,0,0,0,0,2.098,2.0977,2.0955,2.0962,2.0958,2.0936,2.0933,2.0929,2.0925,2.0903,2.0899,2.0911,2.0883,2.088,2.0878,2.0885,2.0865,2.0865,2.0874,2.0875,2.0875,2.0905,0,0,0,0,0,0,2.0979,2.0973,2.0954,2.0952,2.0957,2.0936,2.0932,2.0929,2.0906,2.0902,2.0911,2.0909,2.0883,2.0881,2.0879,2.0887,2.0866,2.0865,2.0865,2.0874,2.0875,2.0876,0,0,0,0,0,0,2.0974,2.0972,2.0953,2.0947,2.0945,2.0936,2.0932,2.0929,2.0907,2.0916,2.0914,2.0911,2.0886,2.0882,2.088,2.0875,2.0867,2.0866,2.0866,2.0865,2.0875,2.0875,0,0,0,0,0,0,2.0973,2.0971,2.0948,2.0946,2.0943,2.0922,2.0932,2.0915,2.0903,2.0917,2.0901,2.09,2.0887,2.0885,2.0881,2.0877,2.0876,2.0867,2.0866,2.0866,2.0866,0,0,0,0,0,0,0,2.0972,2.099,2.0964,2.0944,2.0942,2.0935,2.0935,2.0934,2.0902,2.0902,2.0901,2.09,2.087,2.0869,2.0869,2.0879,0,0,2.0867,2.0866,0,0,0,0,0,0,0,0,2.099,2.099,2.0964,2.0964,2.0964,2.0935,2.0935,2.0934,2.0902,2.0902,2.0901,2.0901,2.087,2.0869,2.0869,0,0,0,0,0,0,0,0,0,0,0,0,0,0,0,2.0964,2.0964,0,2.0935,2.0935,2.0934,2.0902,2.0902,2.0901,2.0901,2.0869,2.0869,2.0869,0,0,0,0,0,0,0,0,0,0,0,0,0,0,0,0,0,0,0,0,0,0,0,0,0,0,0,0,0,0,0,0,0,0,0,0,0,0,0,0,0,0,0,0,0,0,0,0,0,0,0,0,0,0,0,0,0,0,0,0,0,0,0,0,0,0,0,0,0]}],[{"header":{"parameterUnit":"kt","parameterCategory":2,"dx":1,"dy":1,"la1":30.253999710083008,"la2":30.299108505249023,"lo1":-89.0895004272461,"lo2":-89.04439544677734,"nx":28,"ny":28,"refTime":"2022-09-21T09:00:00:Z","depth":0,"parameterNumber":2,"parameterNumberName":"V-component_of_WINDS"},"data":[4.3451,4.3444,4.3427,4.3412,4.3394,4.338,4.337,4.3354,4.3338,4.332,4.3307,4.3289,4.3266,4.3246,4.323,4.3223,4.3216,4.3227,4.3215,4.3187,4.3182,4.3177,4.3176,4.3226,4.3226,4.3246,4.3246,4.3246,4.3431,4.3414,4.3401,4.3377,4.3365,4.3345,4.3325,4.3316,4.3305,4.3285,4.3271,4.3253,4.3238,4.3211,4.3192,4.3189,4.3177,4.3185,4.3183,4.3179,4.3149,4.3149,4.3194,4.3194,4.3194,4.3194,4.3194,4.3194,4.3391,4.3388,4.3363,4.3348,4.3331,4.3316,4.3309,4.3288,4.3275,4.3253,4.3236,4.3223,4.3199,4.3169,4.3155,4.3144,4.3132,4.3134,4.3134,4.3135,4.3137,4.3107,4.314,4.314,4.314,4.314,4.314,0,4.3355,4.334,4.3327,4.3308,4.3297,4.3281,4.3263,4.3259,4.3223,4.3214,4.3199,4.3188,4.3166,4.3149,4.3129,4.3113,4.309,4.3087,4.3088,4.3094,4.3102,4.3095,4.3044,4.3085,4.3085,4.3084,4.3084,4.3084,4.331,4.3309,4.3275,4.3267,4.3253,4.3242,4.3232,4.32,4.3191,4.3165,4.3163,4.3148,4.3132,4.3112,4.3086,4.3069,4.3057,4.3075,4.3055,4.3062,4.3054,4.3054,4.3052,4.3078,4.3079,4.3079,4.308,0,4.3286,4.3257,4.325,4.3216,4.3208,4.3208,4.3179,4.3175,4.3154,4.3145,4.3141,4.3108,4.3094,4.3065,4.3044,4.3029,4.3028,4.3018,4.3035,4.3031,4.3041,4.304,4.3085,4.3088,4.3039,4.304,4.304,0,4.3235,4.3235,4.3192,4.3189,4.3189,4.3156,4.3156,4.3137,4.3116,4.3109,4.3079,4.3073,4.3037,4.3026,4.3004,4.2999,4.2996,4.2983,4.2976,4.2984,4.2985,4.2976,4.2972,4.2965,4.2965,4.2965,4.2965,0,4.3198,4.3176,4.3172,4.3162,4.3125,4.3124,4.3109,4.3085,4.3075,4.3059,4.3052,4.3035,4.3025,4.3013,4.2984,4.2971,4.2978,4.2954,4.2964,4.2965,4.2964,4.2964,4.3014,4.2965,4.2965,4.2964,4.2964,0,4.3151,4.3134,4.3133,4.3101,4.3097,4.3095,4.3075,4.3066,4.3043,4.3029,4.3016,4.2991,4.2985,4.2964,4.2955,4.2946,4.2938,4.2926,4.2926,4.2921,4.2897,4.2926,4.2979,4.2982,4.292,4.292,4.292,0,4.3115,4.3106,4.3077,4.3078,4.3069,4.3034,4.3031,4.3012,4.2992,4.2982,4.2961,4.295,4.2928,4.292,4.292,4.2897,4.2909,4.2895,4.2879,4.2878,4.2883,4.2932,4.2945,4.2971,4.2915,4.2915,4.2916,0,4.3082,4.3037,4.3039,4.3026,4.2994,4.2988,4.2985,4.2967,4.2961,4.2944,4.2939,4.2925,4.2907,4.2895,4.2873,4.2874,4.29,4.2854,4.2853,4.2861,4.2911,4.2923,4.2928,4.2885,4.2885,4.2886,4.2912,0,4.3013,4.3005,4.3011,4.2983,4.2973,4.2973,4.294,4.2934,4.2913,4.2892,4.2887,4.2863,4.2845,4.2843,4.2823,4.2837,4.2829,4.281,4.2784,4.2818,4.2825,4.2829,4.2776,4.2775,4.2774,4.2773,0,0,4.2984,4.2972,4.294,4.2935,4.2925,4.2887,4.2889,4.2874,4.2846,4.2839,4.2826,4.2801,4.2783,4.2779,4.2788,4.2781,4.278,4.2769,4.2803,4.2806,4.2809,4.2818,4.2822,4.2772,4.2772,4.2771,4.2771,0,4.2951,4.2933,4.2935,4.2919,4.2893,4.287,4.2871,4.2838,4.2824,4.2819,4.2788,4.2781,4.2763,4.2746,4.2736,4.277,4.2745,4.2767,4.2795,4.2796,4.2801,4.2805,4.2814,4.2818,4.2769,4.2769,4.2769,0,4.2911,4.2887,4.2884,4.2859,4.2842,4.2835,4.28,4.2795,4.2789,4.2747,4.2743,4.2725,4.2701,4.2704,4.2703,4.269,4.2715,4.2703,4.2707,4.2705,4.2705,4.271,4.2715,4.265,4.265,4.265,0,0,4.2886,4.2879,4.2843,4.2849,4.2841,4.2807,4.28,4.2777,4.2756,4.2748,4.2725,4.2705,4.2694,4.2688,4.2676,4.2683,4.2674,4.2689,4.2695,4.27,4.2701,4.2701,4.2707,4.2649,4.2649,4.2649,0,0,4.2874,4.2832,4.2814,4.2818,4.2799,4.2763,4.2768,4.2746,4.2731,4.2727,4.269,4.2683,4.2685,4.2669,4.2658,4.2665,4.2641,4.2643,4.2675,4.2682,4.2687,4.269,4.2618,0,0,0,0,0,4.2822,4.2837,4.2821,4.2817,4.2785,4.2772,4.2768,4.2736,4.2719,4.2724,4.2701,4.2676,4.2655,4.2645,4.2641,4.2653,4.2635,4.2637,4.2639,4.2682,4.269,4.2696,0,0,0,0,0,0,4.282,4.2815,4.2821,4.2786,4.2779,4.2771,4.2735,4.2727,4.2718,4.2713,4.2681,4.2675,4.2648,4.2645,4.2642,4.2653,4.2619,4.2636,4.2638,4.264,4.2685,4.2691,4.2696,0,0,0,0,0,4.2819,4.2814,4.2771,4.2786,4.2779,4.2741,4.2734,4.2727,4.272,4.2683,4.2676,4.2697,4.2649,4.2645,4.2643,4.2655,4.2621,4.262,4.2637,4.2639,4.264,4.2688,0,0,0,0,0,0,4.2817,4.2808,4.2769,4.2766,4.2777,4.2741,4.2734,4.2727,4.269,4.2683,4.2697,4.2694,4.265,4.2647,4.2644,4.2658,4.2622,4.2621,4.2621,4.2638,4.2639,4.2641,0,0,0,0,0,0,4.281,4.2805,4.2767,4.2759,4.2754,4.2741,4.2735,4.2729,4.269,4.2706,4.2702,4.2696,4.2655,4.2648,4.2646,4.2637,4.2623,4.2623,4.2622,4.2621,4.2639,4.264,0,0,0,0,0,0,4.2807,4.2804,4.2759,4.2756,4.2752,4.2714,4.2735,4.2704,4.2682,4.2708,4.2679,4.2678,4.2658,4.2654,4.2647,4.264,4.2638,4.2623,4.2623,4.2622,4.2622,0,0,0,0,0,0,0,4.2805,4.2838,4.2788,4.2754,4.275,4.2737,4.2736,4.2735,4.2682,4.2681,4.268,4.2679,4.2629,4.2628,4.2627,4.2643,0,0,4.2623,4.2623,0,0,0,0,0,0,0,0,4.2839,4.2839,4.2788,4.2787,4.2786,4.2737,4.2736,4.2735,4.2682,4.2681,4.268,4.2679,4.2628,4.2627,4.2627,0,0,0,0,0,0,0,0,0,0,0,0,0,0,0,4.2787,4.2787,0,4.2736,4.2736,4.2735,4.2682,4.2681,4.268,4.2679,4.2628,4.2627,4.2627,0,0,0,0,0,0,0,0,0,0,0,0,0,0,0,0,0,0,0,0,0,0,0,0,0,0,0,0,0,0,0,0,0,0,0,0,0,0,0,0,0,0,0,0,0,0,0,0,0,0,0,0,0,0,0,0,0,0,0,0,0,0,0,0,0,0,0,0,0]}]]]